Date String (YYYY-MM-DD hh:mm:ss) UTC,Instrument flags,absolute air pressure of the measurement (hPa),sample flow rate (lpm),inlet stack bypass flow (lpm),air temperature of the measurement (°C),ambient temperature measured by the external sensor (°C),aerosol sample conditioner tube jacket temperature (°C),OPC LED temperature (°C),internal box temperature (°C),relative humidity of the measurement (%),span deviation,mass concentration of particles derived from Lorenz-Mie calculation of OPC scattering (μg/m³),mass concentration of particles derived from Lorenz-Mie calculation of OPC scattering (μg/m³),mass concentration of particles derived from Lorenz-Mie calculation of OPC scattering (μg/m³)
DateTimeUTC,F1_M11,P_M11,Q1_M11,Q2_M11,T1_M11,T2_M11,T3_M11,T4_M11,T5_M11,U1_M11,ZSPAN_M11,X2_M11,X0_M11,X1_M11
2023-06-11 06:00:00,SystemResetWarning,0832.2,5.01,000.00,030.2,028.6,000.0,038.6,031.7,24.0,0000.0,0003.29,0009.02,0002.49
2023-06-11 06:01:00,SystemResetWarning,0832.1,5.00,000.00,030.2,028.6,000.0,038.6,031.7,24.0,0000.0,0003.26,0008.94,0002.50
2023-06-11 06:02:00,SystemResetWarning,0832.2,4.99,000.00,030.2,028.6,000.0,038.7,031.7,24.0,0000.0,0003.25,0008.97,0002.51
2023-06-11 06:03:00,SystemResetWarning,0832.1,4.99,000.00,030.2,028.6,000.0,038.7,031.7,24.0,0000.0,0003.26,0008.81,0002.51
2023-06-11 06:04:00,SystemResetWarning,0832.2,5.00,000.00,030.2,028.6,000.0,038.7,031.7,24.1,0000.0,0003.29,0008.50,0002.54
2023-06-11 06:05:00,SystemResetWarning,0832.2,5.00,000.00,030.2,028.6,000.0,038.7,031.7,24.1,0000.0,0003.32,0009.04,0002.57
2023-06-11 06:06:00,SystemResetWarning,0832.1,5.00,000.00,030.2,028.6,000.0,038.7,031.8,24.1,0000.0,0003.29,0008.79,0002.57
2023-06-11 06:07:00,SystemResetWarning,0832.2,5.01,000.00,030.2,028.6,000.0,038.7,031.8,24.1,0000.0,0003.27,0008.64,0002.57
2023-06-11 06:08:00,SystemResetWarning,0832.2,5.01,000.00,030.2,028.7,000.0,038.7,031.7,24.1,0000.0,0003.27,0008.44,0002.58
2023-06-11 06:09:00,SystemResetWarning,0832.2,5.00,000.00,030.2,028.7,000.0,038.7,031.8,24.1,0000.0,0003.28,0007.52,0002.58
2023-06-11 06:10:00,SystemResetWarning,0832.2,5.00,000.00,030.2,028.7,000.0,038.7,031.8,24.1,0000.0,0003.30,0006.98,0002.59
2023-06-11 06:11:00,SystemResetWarning,0832.2,4.99,000.00,030.2,028.7,000.0,038.7,031.7,24.1,0000.0,0003.32,0007.52,0002.62
2023-06-11 06:12:00,SystemResetWarning,0832.2,4.99,000.00,030.2,028.7,000.0,038.8,031.7,24.1,0000.0,0003.31,0008.03,0002.62
2023-06-11 06:13:00,SystemResetWarning,0832.2,5.00,000.00,030.2,028.7,000.0,038.8,031.7,24.1,0000.0,0003.30,0007.97,0002.62
2023-06-11 06:14:00,SystemResetWarning,0832.2,5.01,000.00,030.3,028.7,000.0,038.8,031.7,24.1,0000.0,0003.30,0007.81,0002.63
2023-06-11 06:15:00,SystemResetWarning,0832.3,5.00,000.00,030.3,028.7,000.0,038.8,031.8,24.0,0000.0,0003.29,0007.76,0002.63
2023-06-11 06:16:00,SystemResetWarning,0832.3,4.99,000.00,030.3,028.7,000.0,038.8,031.8,24.0,0000.0,0003.24,0007.21,0002.61
2023-06-11 06:17:00,SystemResetWarning,0832.3,4.99,000.00,030.3,028.7,000.0,038.8,031.8,24.0,0000.0,0003.26,0007.12,0002.61
2023-06-11 06:18:00,SystemResetWarning,0832.3,4.99,000.00,030.3,028.7,000.0,038.8,031.8,24.0,0000.0,0003.27,0007.21,0002.62
2023-06-11 06:19:00,SystemResetWarning,0832.3,5.01,000.00,030.3,028.7,000.0,038.8,031.8,24.0,0000.0,0003.26,0007.21,0002.62
2023-06-11 06:20:00,SystemResetWarning,0832.4,5.01,000.00,030.3,028.7,000.0,038.8,031.8,24.0,0000.0,0003.26,0007.25,0002.63
2023-06-11 06:21:00,SystemResetWarning,0832.4,5.00,000.00,030.3,028.7,000.0,038.8,031.8,24.0,0000.0,0003.26,0007.26,0002.65
2023-06-11 06:22:00,SystemResetWarning,0832.4,5.00,000.00,030.3,028.6,000.0,038.8,031.8,23.9,0000.0,0003.28,0006.99,0002.65
2023-06-11 06:23:00,SystemResetWarning,0832.3,4.99,000.00,030.3,028.7,000.0,038.8,031.8,23.9,0000.0,0003.30,0006.61,0002.66
2023-06-11 06:24:00,SystemResetWarning,0832.3,4.99,000.00,030.3,028.7,000.0,038.8,031.8,23.9,0000.0,0003.31,0007.57,0002.65
2023-06-11 06:25:00,SystemResetWarning,0832.3,5.00,000.00,030.3,028.7,000.0,038.8,031.8,23.9,0000.0,0003.32,0007.77,0002.65
2023-06-11 06:26:00,SystemResetWarning,0832.3,5.00,000.00,030.3,028.7,000.0,038.8,031.8,23.9,0000.0,0003.32,0007.95,0002.64
2023-06-11 06:27:00,SystemResetWarning,0832.3,5.01,000.00,030.3,028.7,000.0,038.8,031.8,23.9,0000.0,0003.30,0007.89,0002.65
2023-06-11 06:28:00,SystemResetWarning,0832.3,5.01,000.00,030.3,028.7,000.0,038.8,031.8,23.9,0000.0,0003.28,0008.00,0002.65
2023-06-11 06:29:00,SystemResetWarning,0832.3,4.99,000.00,030.3,028.7,000.0,038.9,031.8,23.9,0000.0,0003.30,0008.14,0002.64
2023-06-11 06:30:00,SystemResetWarning,0832.3,4.99,000.00,030.3,028.7,000.0,038.9,031.8,23.8,0000.0,0003.31,0008.19,0002.63
2023-06-11 06:31:00,SystemResetWarning,0832.2,5.01,000.00,030.3,028.7,000.0,038.9,031.8,23.8,0000.0,0003.33,0008.43,0002.63
2023-06-11 06:32:00,SystemResetWarning,0832.3,5.00,000.00,030.3,028.7,000.0,038.9,031.9,23.8,0000.0,0003.32,0008.97,0002.61
2023-06-11 06:33:00,SystemResetWarning,0832.3,5.01,000.00,030.4,028.7,000.0,038.9,031.8,23.8,0000.0,0003.30,0008.64,0002.59
2023-06-11 06:34:00,SystemResetWarning,0832.3,5.01,000.00,030.4,028.7,000.0,038.9,031.8,23.8,0000.0,0003.31,0008.64,0002.60
2023-06-11 06:35:00,SystemResetWarning,0832.3,5.00,000.00,030.4,028.7,000.0,038.9,031.9,23.8,0000.0,0003.31,0007.93,0002.61
2023-06-11 06:36:00,SystemResetWarning,0832.3,5.00,000.00,030.4,028.7,000.0,038.9,031.9,23.8,0000.0,0003.28,0007.69,0002.60
2023-06-11 06:37:00,SystemResetWarning,0832.3,5.00,000.00,030.4,028.7,000.0,038.9,031.9,23.8,0000.0,0003.28,0007.64,0002.60
2023-06-11 06:38:00,SystemResetWarning,0832.3,5.00,000.00,030.4,028.7,000.0,038.9,031.9,23.8,0000.0,0003.32,0007.86,0002.59
2023-06-11 06:39:00,SystemResetWarning,0832.3,5.00,000.00,030.4,028.7,000.0,038.9,031.9,23.8,0000.0,0003.36,0007.92,0002.58
2023-06-11 06:40:00,SystemResetWarning,0832.3,5.00,000.00,030.4,028.7,000.0,038.9,031.9,23.8,0000.0,0003.34,0007.73,0002.57
2023-06-11 06:41:00,SystemResetWarning,0832.3,5.00,000.00,030.4,028.7,000.0,038.9,031.9,23.8,0000.0,0003.30,0007.57,0002.57
2023-06-11 06:42:00,SystemResetWarning,0832.3,5.01,000.00,030.4,028.7,000.0,038.9,031.9,23.8,0000.0,0003.31,0007.47,0002.58
2023-06-11 06:43:00,SystemResetWarning,0832.3,5.00,000.00,030.4,028.7,000.0,038.9,031.9,23.8,0000.0,0003.32,0006.97,0002.59
2023-06-11 06:44:00,SystemResetWarning,0832.3,4.99,000.00,030.4,028.7,000.0,038.9,031.9,23.9,0000.0,0003.32,0006.39,0002.60
2023-06-11 06:45:00,SystemResetWarning,0832.2,5.00,000.00,030.4,028.7,000.0,038.9,031.8,23.9,0000.0,0003.28,0006.62,0002.57
2023-06-11 06:46:00,SystemResetWarning,0832.2,5.00,000.00,030.4,028.7,000.0,038.9,031.9,23.9,0000.0,0003.26,0006.52,0002.56
2023-06-11 06:47:00,SystemResetWarning,0832.2,5.00,000.00,030.4,028.7,000.0,038.9,031.9,23.9,0000.0,0003.26,0006.51,0002.54
2023-06-11 06:48:00,SystemResetWarning,0832.2,5.01,000.00,030.4,028.7,000.0,038.9,031.9,23.9,0000.0,0003.24,0006.63,0002.54
2023-06-11 06:49:00,SystemResetWarning,0832.2,5.00,000.00,030.4,028.7,000.0,038.9,031.9,24.0,0000.0,0003.22,0006.59,0002.52
2023-06-11 06:50:00,SystemResetWarning,0832.2,5.00,000.00,030.4,028.7,000.0,038.9,031.9,24.0,0000.0,0003.19,0006.37,0002.51
2023-06-11 06:51:00,SystemResetWarning,0832.2,4.99,000.00,030.4,028.7,000.0,038.9,031.9,24.0,0000.0,0003.22,0006.52,0002.51
2023-06-11 06:52:00,SystemResetWarning,0832.2,5.00,000.00,030.4,028.7,000.0,038.9,031.9,24.0,0000.0,0003.23,0006.55,0002.49
2023-06-11 06:53:00,SystemResetWarning,0832.3,5.01,000.00,030.4,028.8,000.0,038.9,031.9,23.9,0000.0,0003.19,0006.47,0002.48
2023-06-11 06:54:00,SystemResetWarning,0832.3,5.00,000.00,030.4,028.8,000.0,038.9,031.9,23.9,0000.0,0003.16,0006.31,0002.48
2023-06-11 06:55:00,SystemResetWarning,0832.3,5.00,000.00,030.4,028.8,000.0,038.9,031.9,23.9,0000.0,0003.16,0006.20,0002.47
2023-06-11 06:56:00,SystemResetWarning,0832.3,4.98,000.00,030.4,028.8,000.0,038.9,031.9,23.9,0000.0,0003.15,0005.93,0002.48
2023-06-11 06:57:00,SystemResetWarning,0832.3,5.00,000.00,030.4,028.8,000.0,039.0,031.9,23.9,0000.0,0003.17,0005.97,0002.48
2023-06-11 06:58:00,SystemResetWarning,0832.3,4.99,000.00,030.4,028.8,000.0,039.0,031.9,23.9,0000.0,0003.18,0006.63,0002.49
2023-06-11 06:59:00,SystemResetWarning,0832.3,5.00,000.00,030.4,028.8,000.0,039.0,032.0,23.8,0000.0,0003.21,0006.64,0002.51
